Location: Branche des Alpilles
(43.6087°N, 4.6976°E)
Time: 09:44:04
(UTC+00:00)

Cosmos 1328 Rocket - Pass Details

Date: 30 November 2020
Orbit: 601 x 627 km, 82.5° (Epoch: 26 January)

Event Time Altitude Azimuth Distance (km) Brightness Sun altitude
Rises 17:17:07 0° 186° (S) 2,840 7.3 -12.6°
Reaches altitude 10° 17:19:18 10° 185° (S) 1,944 6.4 -13.0°
Maximum altitude 17:23:36 86° 97° (E) 614 3.5 -13.7°
Drops below altitude 10° 17:27:59 10° 9° (N) 1,973 5.9 -14.5°
Sets 17:30:13 0° 9° (N) 2,887 6.7 -14.9°
Enters shadow 17:30:21 -1° 9° (N) 2,944 6.8 -14.9°
